Regional Weather Roundup
Issued by NWS

Home | Current Version | Previous Version | Text Only | Print | Product List | Glossary On
Versions: 1 2 3 4 5 6 7 8 9 10 11 12 13 14 15 16 17 18 19 20 21 22 23 24 25 26 27 28 29 30 31 32 33 34 35 36 37 38 39 40 41 42 43 44 45 46 47 48 49 50
000
ASUS43 KDTX 252010
RWRMI
MICHIGAN HOURLY REGIONAL WEATHER ROUNDUP
NATIONAL WEATHER SERVICE DETROIT/PONTIAC MI
400 PM EDT SUN JUN 25 2017

NOTE: "FAIR" INDICATES FEW OR NO CLOUDS BELOW 12,000 FEET WITH NO
SIGNIFICANT WEATHER AND/OR OBSTRUCTION TO VISIBILITY.

MIZ047>049-052>055-059>063-066>070-074>076-081>083-252100-
SOUTHEAST LOWER MICHIGAN

CITY           SKY/WX    TMP DP  RH WIND       PRES   REMARKS
ADRIAN         PTSUNNY   71  46  40 W12       30.06S
ALMA           CLOUDY    62  53  74 W15       30.02S
ANN ARBOR      CLOUDY    68  47  46 W17G25    30.02F
BAD AXE        PTSUNNY   65  53  63 W15G23    29.98S
CARO           CLOUDY    65  53  67 W13G22    29.99S
DETROIT CITY   PTSUNNY   69  46  43 W14G23    30.00F
DETROIT        PTSUNNY   71  48  43 W16G25    30.03S
FLINT          CLOUDY    66  49  54 W18G35    30.01S
GROSSE ILE     PTSUNNY   71  49  45 W12       30.02S
HILLSDALE      PTSUNNY   70  43  37 W17G26    30.06S
HOWELL         CLOUDY    66  44  45 W9        30.02S

CITY           SKY/WX    TMP DP  RH WIND       PRES   REMARKS
JACKSON        PTSUNNY   68  45  43 W13       30.04S
LAMBERTVILLE   PTSUNNY   70  46  42 W9G16     30.04S
LANSING        CLOUDY    68  47  46 W18G28    30.03R
LAPEER         PTSUNNY   67  49  52 W13G20    30.01S
MASON          PTSUNNY   69  48  47 W18G26    30.04R
MONROE         CLOUDY    71  49  44 W14G22    30.03S
MT. CLEMENS    LGT RAIN  61  54  78 W7        30.01R
PONTIAC        PTSUNNY   64  55  72 W8        30.01S
PORT HOPE        N/A     65  51  60 VRB7G18   29.95S
PORT HURON     CLOUDY    64  52  63 W3        30.01R
TRI CITIES     LGT RAIN  63  57  81 W10G20    29.99F
MIDLAND        HVY RAIN  63  55  73 W12       29.99R
TROY           CLOUDY    67  48  49 NW9       30.03S
SAGINAW HB     CLOUDY    64  50  59 SW15G23   29.99S
$$
MIZ043>046-050>051-056>058-064>065-071>073-077>080-252100-
SOUTHWEST LOWER MICHIGAN

CITY           SKY/WX    TMP DP  RH WIND       PRES   REMARKS
BATTLE CREEK   MOSUNNY   71  47  42 W16G25    30.07S
BENTON HARBOR  SUNNY     71  46  40 W14       30.09S
BIG RAPIDS     CLOUDY    60  48  64 NW8       30.01S
COLDWATER      PTSUNNY   70  43  37 W17G25    30.07S
FREMONT        CLOUDY    64  48  57 NW10G23   30.02S
HOLLAND        SUNNY     69  51  52 W20G28    30.06F
GRAND RAPIDS   PTSUNNY   68  51  54 W20G32    30.04S
IONIA          PTSUNNY   68  48  48 W20       30.02S
KALAMAZOO      PTSUNNY   69  43  38 W13G22    30.08S
LUDINGTON      CLOUDY    63  53  70 NW7       30.02S
MARSHALL       PTSUNNY   69  45  42 W16G24    30.05S
MOUNT PLEASANT MOSUNNY   64  49  59 W13       29.99S
MUSKEGON       LGT RAIN  64  52  64 W10       30.05R
SOUTH HAVEN    SUNNY     68  50  52 W13G22    30.08F
$$
MIZ016>042-252100-
NORTHERN LOWER MICHIGAN

CITY           SKY/WX    TMP DP  RH WIND       PRES   REMARKS
ALPENA         CLOUDY    60  58  92 SE7       29.96R
BEAVER ISLAND  SUNNY     66  52  60 W6        29.96F
BELLAIRE       MOSUNNY   63  51  64 W8        29.97S
CADILLAC       CLOUDY    59  52  78 W9        29.99S
CHARLEVOIX     SUNNY     62  54  73 W9        30.00S
FRANKFORT      CLOUDY    61  52  71 W7        30.01R
GAYLORD        PTSUNNY   63  47  55 NW8G17    29.96R
GRAYLING       CLOUDY    63  53  69 W9        29.97S
HARBOR SPRINGS PTSUNNY   63  56  77 W10       29.95F
HOUGHTON LAKE  CLOUDY    61  53  75 NW7       29.98R
MANISTEE       CLOUDY    60  52  74 W10       30.01S
OSCODA         LGT RAIN  59  56  88 N12G17    29.95R
PELLSTON       MOSUNNY   68  50  52 NW7       29.94F
ROGERS CITY    SUNNY     61  52  72 NE6       29.97S
TRAVERSE CITY  CLOUDY    62  51  67 NW9       29.97S
$$
MIZ007>008-015-252100-
EASTERN UPPER MICHIGAN

CITY           SKY/WX    TMP DP  RH WIND       PRES   REMARKS
KINROSS        PTSUNNY   69  48  47 NW9G16    29.93S
MACKINAC ISLAN SUNNY     63  52  68 SW13      29.93F
NEWBERRY       CLOUDY    60  56  87 S3        29.94S
S. S. MARIE    TSTM      61  51  70 SE12G21   29.94R
MUNISING         N/A     55  50  83 NE7       29.98F
$$
MIZ004>006-011>014-085-252100-
CENTRAL UPPER MICHIGAN

CITY           SKY/WX    TMP DP  RH WIND       PRES   REMARKS
MANISTIQUE     PTSUNNY   65  50  57 NW3       29.95S
ESCANABA       CLOUDY    61  58  90 SW8       29.98R
MENOMINEE      CLOUDY    67  53  61 S5        29.98S
SAWYER-GWINN   SUNNY     61  50  67 NE13      29.99R
$$
MIZ001>003-009>011-084-252100-
WESTERN UPPER MICHIGAN

CITY           SKY/WX    TMP DP  RH WIND       PRES   REMARKS
IRON MOUNTAIN  SUNNY     67  45  45 CALM      29.95F
HOUGHTON       MOSUNNY   60  52  74 NW14      29.99F
COPPER HARBOR    N/A     48  43  82 NE5       30.00F
IRONWOOD       TSTM      56  51  84 NW7       30.03R
$$

ABBREVIATIONS USED IN REMARKS
   TC - TEMPERATURE IN CELSIUS
  WCI - WIND CHILL INDEX
   HX - HEAT INDEX
  VSB - VISIBILITY




USA.gov is the U.S. government's official web portal to all federal, state and local government web resources and services.